Location: Unspecified
(40.4667°N, 0.0000°E)
Time: 10:56:01
(UTC+00:00)

ISS - Pass Details

Date: 26 May 2019
Orbit: 407 x 418 km, 51.6° (Epoch: 20 June)

Event Time Altitude Azimuth Distance (km) Brightness Sun altitude
Rises 22:08:28 0° 312° (NW) 2,359 1.2 -23.4°
Reaches altitude 10° 22:11:04 10° 333° (NNW) 1,497 0.1 -23.6°
Enters shadow 22:14:34 15° 42° (NE) 1,223 -1.2 -23.9°
Exits shadow 22:45:32 -58° 116° (ESE) 11,313 3.5 -26.1°
